DW5861 Weather Reports


Display with metric or nautical units.
time (UTC)temp
F
wind
direction
speed
MPH
gust
MPH
rain 1hr
in
rain 24hr
in
rain mn
in
humidity
%
barometer
mb
20260510170504 82 187 2.0 5.0 0.00 0.00 0.00 75 1014.1
20260510170025 82 182 3.0 5.0 0.00 0.00 0.00 75 1014.1
20260510165504 82 173 3.0 8.0 0.00 0.00 0.00 75 1014.1
20260510165004 82 165 3.0 8.0 0.00 0.00 0.00 74 1014.1
20260510164504 83 167 3.0 6.0 0.00 0.00 0.00 73 1014.1
20260510164004 83 184 3.0 6.0 0.00 0.00 0.00 76 1014.1
20260510163504 83 185 3.0 6.0 0.00 0.00 0.00 74 1014.1
20260510163004 82 152 3.0 6.0 0.00 0.00 0.00 75 1014.1
20260510162504 82 144 3.0 7.0 0.00 0.00 0.00 74 1014.2
20260510162004 82 148 2.0 7.0 0.00 0.00 0.00 75 1014.2
20260510161525 82 145 2.0 4.0 0.00 0.00 0.00 79 1014.3
20260510161004 81 151 2.0 5.0 0.00 0.00 0.00 76 1014.3
20260510160525 81 157 2.0 5.0 0.00 0.00 0.00 76 1014.3
20260510160004 81 157 2.0 5.0 0.00 0.00 0.00 77 1014.5
20260510155525 80 143 2.0 5.0 0.00 0.00 0.00 78 1014.4
20260510155004 79 135 1.0 5.0 0.00 0.00 0.00 80 1014.5
20260510154504 79 150 2.0 6.0 0.00 0.00 0.00 81 1014.6
20260510154004 78 143 2.0 6.0 0.00 0.00 0.00 83 1014.6
20260510153504 77 81 2.0 8.0 0.00 0.00 0.00 84 1014.7
20260510153025 76 37 2.0 8.0 0.00 0.00 0.00 83 1014.8
20260510152504 76 56 2.0 5.0 0.00 0.00 0.00 84 1014.8
20260510152004 76 54 2.0 5.0 0.00 0.00 0.00 84 1014.9
20260510151504 76 22 2.0 5.0 0.00 0.00 0.00 84 1015.0
20260510151004 76 35 2.0 6.0 0.00 0.00 0.00 83 1014.9
20260510150504 77 52 2.0 7.0 0.00 0.00 0.00 83 1015.1
20260510150004 76 62 2.0 7.0 0.00 0.00 0.00 85 1015.0
20260510145504 76 5 2.0 5.0 0.00 0.00 0.00 88 1015.0
20260510145004 75 21 2.0 5.0 0.00 0.00 0.00 88 1015.0
20260510144504 75 18 1.0 5.0 0.00 0.00 0.00 89 1015.0
20260510144004 74 26 1.0 3.0 0.00 0.00 0.00 92 1015.1
20260510143504 73 30 2.0 5.0 0.00 0.00 0.00 93 1014.9
20260510143004 73 112 2.0 5.0 0.00 0.00 0.00 94 1015.0
20260510142504 72 126 2.0 5.0 0.00 0.00 0.00 95 1015.1
20260510142004 71 357 2.0 5.0 0.00 0.00 0.00 95 1015.0
20260510141504 72 8 2.0 5.0 0.00 0.00 0.00 96 1015.3
20260510141004 71 110 2.0 5.0 0.00 0.00 0.00 96 1015.0
20260510140504 70 342 1.0 3.0 0.00 0.00 0.00 96 1015.3
20260510140004 70 152 2.0 4.0 0.00 0.00 0.00 96 1015.4
20260510135525 70 127 2.0 4.0 0.00 0.00 0.00 96 1015.1
20260510135004 70 11 2.0 4.0 0.00 0.00 0.00 96 1015.7
20260510134504 70 8 1.0 5.0 0.00 0.00 0.00 96 1015.9
20260510134004 70 13 1.0 5.0 0.00 0.00 0.00 96 1015.9
20260510133504 70 355 2.0 3.0 0.00 0.00 0.00 96 1015.8
20260510133004 70 351 1.0 4.0 0.00 0.00 0.00 96 1015.8
20260510132504 70 352 1.0 4.0 0.00 0.00 0.00 96 1015.8
20260510132004 70 353 2.0 6.0 0.00 0.00 0.00 96 1015.6
20260510131504 70 347 2.0 6.0 0.00 0.00 0.00 96 1015.6
20260510131025 70 346 2.0 4.0 0.00 0.00 0.00 96 1015.6
20260510130504 70 341 1.0 3.0 0.00 0.00 0.00 97 1015.4
20260510130004 70 324 1.0 2.0 0.00 0.00 0.00 96 1015.0
20260510125504 70 324 1.0 2.0 0.00 0.00 0.00 97 1014.9
20260510125004 69 338 1.0 2.0 0.00 0.00 0.00 97 1015.0
20260510124504 69 360 0.0 2.0 0.00 0.00 0.00 96 1015.0
20260510124004 69 6 0.0 2.0 0.00 0.00 0.00 96 1015.0
20260510123504 69 347 1.0 2.0 0.00 0.00 0.00 96 1015.0
20260510123004 69 344 1.0 3.0 0.00 0.00 0.00 96 1015.0
20260510122504 69 347 1.0 3.0 0.00 0.00 0.00 96 1015.0
20260510122004 68 345 1.0 4.0 0.00 0.00 0.00 96 1015.0
20260510121504 68 340 1.0 4.0 0.00 0.00 0.00 96 1014.8
20260510121004 68 334 1.0 2.0 0.00 0.00 0.00 96 1014.8
20260510120504 68 337 1.0 2.0 0.00 0.00 0.00 96 1014.5
20260510120025 68 351 0.0 2.0 0.00 0.00 0.00 96 1014.4
20260510115504 68 346 1.0 3.0 0.00 0.00 0.00 96 1014.2
20260510115004 68 341 2.0 3.0 0.00 0.00 0.00 96 1014.2
20260510114504 68 336 1.0 3.0 0.00 0.00 0.00 96 1014.2
20260510114004 68 329 1.0 2.0 0.00 0.00 0.00 96 1014.0
20260510113504 68 262 0.0 1.0 0.00 0.00 0.00 95 1013.6
20260510113004 68 329 0.0 1.0 0.00 0.00 0.00 95 1013.6
20260510112504 68 325 0.0 1.0 0.00 0.00 0.00 95 1013.6
20260510112004 68 315 0.0 1.0 0.00 0.00 0.00 95 1013.5
20260510111525 68 318 1.0 2.0 0.00 0.00 0.00 95 1013.4
20260510111004 68 307 1.0 2.0 0.00 0.00 0.00 95 1013.3
20260510110504 68 164 1.0 2.0 0.00 0.00 0.00 95 1013.0
20260510110004 68 152 1.0 3.0 0.00 0.00 0.00 95 1012.7
20260510105525 68 149 1.0 3.0 0.00 0.00 0.00 95 1012.7
20260510105004 69 98 1.0 2.0 0.00 0.00 0.00 95 1013.0
20260510104504 68 18 0.0 2.0 0.00 0.00 0.00 95 1013.0
20260510104004 68 344 0.0 2.0 0.00 0.00 0.00 96 1013.1
20260510103504 69 350 1.0 2.0 0.00 0.00 0.00 96 1013.1
20260510103004 69 352 1.0 2.0 0.00 0.00 0.00 96 1013.1
20260510102504 69 349 2.0 3.0 0.00 0.00 0.00 96 1013.0
20260510102025 68 346 2.0 3.0 0.00 0.00 0.00 96 1012.9
20260510101504 68 346 1.0 3.0 0.00 0.00 0.00 95 1012.9
20260510101004 68 347 1.0 2.0 0.00 0.00 0.00 95 1012.7
20260510100504 68 348 1.0 2.0 0.00 0.00 0.00 95 1012.6
20260510100004 68 351 1.0 2.0 0.00 0.00 0.00 95 1012.6
20260510095504 68 353 1.0 2.0 0.00 0.00 0.00 95 1012.4
20260510095004 68 359 0.0 1.0 0.00 0.00 0.00 95 1012.1
20260510094504 68 352 0.0 2.0 0.00 0.00 0.00 95 1012.0
20260510094004 68 348 1.0 2.0 0.00 0.00 0.00 95 1011.9
20260510093504 68 344 0.0 2.0 0.00 0.00 0.00 95 1011.8
20260510093004 68 69 0.0 3.0 0.00 0.00 0.00 95 1011.6
20260510092525 68 159 1.0 3.0 0.00 0.00 0.00 95 1011.4
20260510092004 68 170 2.0 3.0 0.00 0.00 0.00 95 1011.1
20260510091504 68 168 2.0 4.0 0.00 0.00 0.00 95 1010.8
20260510091004 68 166 2.0 4.0 0.00 0.00 0.00 95 1010.7
20260510090504 68 173 1.0 3.0 0.00 0.00 0.00 95 1010.7
20260510090004 68 173 1.0 3.0 0.00 0.00 0.00 95 1010.8
20260510085504 68 165 2.0 4.0 0.00 0.00 0.00 94 1010.7
20260510085003 68 165 2.0 4.0 0.00 0.00 0.00 94 1010.7
20260510084504 67 169 2.0 5.0 0.00 0.00 0.00 94 1010.6
20260510084004 67 163 2.0 6.0 0.00 0.00 0.00 94 1010.6
20260510083504 67 165 2.0 6.0 0.00 0.00 0.00 94 1010.6
20260510083004 67 162 2.0 6.0 0.00 0.00 0.00 94 1010.8
20260510082504 67 159 2.0 6.0 0.00 0.00 0.00 94 1010.8
20260510082004 67 160 2.0 4.0 0.00 0.00 0.00 94 1010.8
20260510081504 67 161 2.0 4.0 0.00 0.00 0.00 94 1010.8
20260510081004 67 166 2.0 4.0 0.00 0.00 0.00 94 1010.8
20260510080504 67 164 2.0 3.0 0.00 0.00 0.00 94 1010.9
20260510080004 67 157 1.0 3.0 0.00 0.00 0.00 94 1011.0
20260510075504 67 156 1.0 3.0 0.00 0.00 0.00 94 1011.1
20260510075004 67 158 1.0 2.0 0.00 0.00 0.00 94 1011.2
20260510074504 66 153 1.0 3.0 0.00 0.00 0.00 94 1011.2
20260510074004 66 159 1.0 3.0 0.00 0.00 0.00 93 1011.2
20260510073504 66 163 1.0 3.0 0.00 0.00 0.00 93 1011.1
20260510073004 66 151 1.0 3.0 0.00 0.00 0.00 93 1011.1
20260510072504 66 180 1.0 2.0 0.00 0.00 0.00 93 1011.0
20260510072004 66 183 1.0 2.0 0.00 0.00 0.00 93 1011.0
20260510071504 66 167 0.0 2.0 0.00 0.00 0.00 93 1010.9
20260510071004 66 151 0.0 2.0 0.00 0.00 0.00 92 1010.9
20260510070504 66 175 0.0 1.0 0.00 0.00 0.00 92 1010.9
20260510070025 66 203 0.0 2.0 0.00 0.00 0.00 92 1010.9
20260510065504 66 198 0.0 2.0 0.00 0.00 0.00 92 1010.9
20260510065003 66 116 0.0 1.0 0.00 0.00 0.00 92 1010.9
20260510064504 66 155 0.0 2.0 0.00 0.00 0.00 92 1010.9
20260510064025 66 166 0.0 2.0 0.00 0.00 0.00 92 1010.9
20260510063504 66 166 1.0 2.0 0.00 0.00 0.00 92 1010.9
20260510063004 66 161 1.0 2.0 0.00 0.00 0.00 92 1010.8
20260510062504 66 154 1.0 2.0 0.00 0.00 0.00 92 1010.8
20260510062004 66 165 1.0 2.0 0.00 0.00 0.00 92 1010.8
20260510061504 66 164 1.0 2.0 0.00 0.00 0.00 92 1010.8
20260510061004 66 165 1.0 2.0 0.00 0.00 0.00 92 1010.8
20260510060503 66 166 1.0 3.0 0.00 0.00 0.00 91 1010.8
20260510060004 66 157 1.0 3.0 0.00 0.00 0.00 91 1011.0
20260510055503 66 149 0.0 2.0 0.00 0.00 0.00 91 1011.1
20260510055004 67 136 0.0 1.0 0.00 0.00 0.00 92 1011.1
20260510054504 67 148 0.0 2.0 0.00 0.00 0.00 91 1011.2
20260510054003 67 147 1.0 2.0 0.00 0.00 0.00 91 1011.2
20260510053503 67 153 1.0 2.0 0.00 0.00 0.00 91 1011.1
20260510053003 67 177 0.0 2.0 0.00 0.00 0.00 91 1011.1
20260510052503 67 169 0.0 2.0 0.00 0.00 0.00 90 1011.1
20260510052024 67 165 0.0 2.0 0.00 0.00 0.00 90 1011.0
20260510051503 67 170 0.0 2.0 0.00 0.00 0.00 90 1010.9
20260510051003 67 177 1.0 3.0 0.00 0.00 0.00 90 1010.8
20260510050503 68 186 1.0 3.0 0.00 0.00 0.00 90 1010.8
20260510050004 68 177 1.0 3.0 0.00 0.00 0.00 90 1010.9
20260510045503 68 168 1.0 3.0 0.00 0.00 0.00 90 1010.9
20260510045004 68 166 1.0 3.0 0.00 0.00 0.00 90 1010.9
20260510044504 68 161 1.0 3.0 0.00 0.00 0.00 90 1010.9
20260510044003 68 173 1.0 3.0 0.00 0.00 0.00 90 1010.9
20260510043504 68 179 1.0 3.0 0.00 0.00 0.00 90 1010.9
20260510043004 68 179 1.0 2.0 0.00 0.00 0.00 89 1011.0
20260510042504 68 183 1.0 2.0 0.00 0.00 0.00 89 1011.0
20260510042004 69 175 1.0 4.0 0.00 0.00 0.00 89 1011.0
20260510041525 69 173 1.0 4.0 0.00 0.00 0.00 89 1011.0
20260510041003 69 181 1.0 3.0 0.00 0.00 0.00 89 1011.0
20260510040504 69 189 1.0 3.0 0.00 0.00 0.00 89 1011.0
20260510040004 69 185 1.0 4.0 0.00 0.00 0.00 89 1011.0
20260510035504 69 171 2.0 4.0 0.00 0.00 0.00 89 1011.1
20260510035003 70 166 2.0 6.0 0.00 0.00 0.00 89 1011.0
20260510034503 70 171 2.0 6.0 0.00 0.00 0.00 89 1011.2
20260510034003 70 170 2.0 7.0 0.00 0.00 0.00 88 1011.3
20260510033524 70 166 2.0 7.0 0.00 0.00 0.00 88 1011.3
20260510033025 70 173 2.0 7.0 0.00 0.00 0.00 88 1011.3
20260510032524 70 174 2.0 5.0 0.00 0.00 0.00 88 1011.3
20260510032004 70 169 2.0 7.0 0.00 0.00 0.00 88 1011.3
20260510031504 71 160 3.0 7.0 0.00 0.00 0.00 88 1011.3
20260510031003 71 153 3.0 7.0 0.00 0.00 0.00 88 1011.2
20260510030504 71 150 3.0 8.0 0.00 0.00 0.00 88 1011.1
20260510030004 71 150 3.0 8.0 0.00 0.00 0.00 88 1011.0
20260510025503 71 157 2.0 6.0 0.00 0.00 0.00 88 1010.9
20260510025024 71 157 2.0 7.0 0.00 0.00 0.00 87 1010.8
20260510024504 71 153 2.0 7.0 0.00 0.00 0.00 87 1010.8
20260510024003 72 158 2.0 8.0 0.00 0.00 0.00 87 1010.6
20260510023503 72 160 2.0 8.0 0.00 0.00 0.00 87 1010.6
20260510023004 72 159 1.0 4.0 0.00 0.00 0.00 87 1010.6
20260510022504 72 155 2.0 5.0 0.00 0.00 0.00 87 1010.5
20260510022003 72 143 1.0 5.0 0.00 0.00 0.00 86 1010.3
20260510021503 73 153 1.0 4.0 0.00 0.00 0.00 86 1010.2
20260510021004 73 158 1.0 6.0 0.00 0.00 0.00 86 1010.1
20260510020504 73 160 2.0 6.0 0.00 0.00 0.00 86 1010.1
20260510020024 73 157 2.0 4.0 0.00 0.00 0.00 85 1010.0
20260510015504 74 151 1.0 4.0 0.00 0.00 0.00 85 1010.0
20260510015003 74 157 1.0 5.0 0.00 0.00 0.00 85 1009.8
20260510014503 74 155 2.0 5.0 0.00 0.00 0.00 84 1009.7
20260510014003 74 159 2.0 6.0 0.00 0.00 0.00 84 1009.8
20260510013503 75 119 2.0 6.0 0.00 0.00 0.00 84 1009.6
20260510013003 75 139 2.0 6.0 0.00 0.00 0.00 84 1009.6
20260510012524 75 173 2.0 6.0 0.00 0.00 0.00 83 1009.4
20260510012003 76 169 1.0 5.0 0.00 0.00 0.00 82 1009.3
20260510011524 76 136 1.0 7.0 0.00 0.00 0.00 82 1009.3
20260510011003 76 140 2.0 7.0 0.00 0.00 0.00 82 1009.1
20260510010503 77 153 3.0 10.0 0.00 0.00 0.00 81 1008.8
20260510010003 77 149 2.0 10.0 0.00 0.00 0.00 81 1008.8
20260510005503 78 144 3.0 9.0 0.00 0.00 0.00 81 1008.8
20260510005003 78 146 3.0 9.0 0.00 0.00 0.00 81 1008.6
20260510004503 79 152 2.0 6.0 0.00 0.00 0.00 81 1008.5
20260510004003 79 152 2.0 6.0 0.00 0.00 0.00 82 1008.4
20260510003503 80 134 2.0 6.0 0.00 0.00 0.00 82 1008.3
20260510003004 81 88 2.0 6.0 0.00 0.00 0.00 81 1008.3
20260510002524 81 44 2.0 7.0 0.00 0.00 0.00 80 1008.3
20260510002003 82 33 1.0 7.0 0.00 0.00 0.00 81 1008.2
20260510001503 82 33 0.0 2.0 0.00 0.00 0.00 82 1008.0
20260510001003 82 42 1.0 2.0 0.00 0.00 0.00 82 1007.9
20260510000503 82 39 1.0 2.0 0.00 0.00 0.00 82 1007.9
20260510000024 82 35 0.0 2.0 0.00 0.00 0.00 82 1007.8
20260509235503 82 39 1.0 2.0 0.00 0.00 0.00 82 1007.8
20260509235003 82 33 1.0 2.0 0.00 0.00 0.00 82 1007.8
20260509234503 82 32 1.0 2.0 0.00 0.00 0.00 82 1007.8
20260509234003 82 33 1.0 2.0 0.00 0.00 0.00 81 1007.7
20260509233503 82 30 0.0 1.0 0.00 0.00 0.00 82 1007.7
20260509233003 82 26 0.0 1.0 0.00 0.00 0.00 82 1007.8
20260509232503 82 31 1.0 2.0 0.00 0.00 0.00 81 1007.7
20260509232003 82 34 1.0 2.0 0.00 0.00 0.00 81 1007.6
20260509231503 83 32 1.0 1.0 0.00 0.00 0.00 80 1007.6
20260509231003 83 29 1.0 2.0 0.00 0.00 0.00 81 1007.5
20260509230504 83 33 1.0 2.0 0.00 0.00 0.00 80 1007.3
20260509230004 83 43 1.0 2.0 0.00 0.00 0.00 79 1007.3
20260509225525 83 48 1.0 2.0 0.00 0.00 0.00 80 1007.2
20260509225004 84 44 0.0 2.0 0.00 0.00 0.00 79 1007.1
20260509224504 84 25 0.0 2.0 0.00 0.00 0.00 80 1007.1
20260509224004 84 36 1.0 2.0 0.00 0.00 0.00 80 1007.1
20260509223504 85 60 1.0 2.0 0.00 0.00 0.00 78 1007.1
20260509223004 84 51 1.0 2.0 0.00 0.00 0.00 76 1007.1
20260509222504 84 42 1.0 2.0 0.00 0.00 0.00 76 1007.1
20260509222004 85 38 0.0 2.0 0.00 0.00 0.00 75 1007.1
20260509221504 85 26 1.0 2.0 0.00 0.00 0.00 75 1007.1
20260509221004 85 19 1.0 2.0 0.00 0.00 0.00 73 1007.0
20260509220504 86 359 1.0 2.0 0.00 0.00 0.00 72 1007.0
20260509220004 86 342 1.0 2.0 0.00 0.00 0.00 77 1007.0
20260509215504 86 20 1.0 3.0 0.00 0.00 0.00 77 1007.0
20260509215004 86 36 1.0 3.0 0.00 0.00 0.00 76 1007.0
20260509214504 86 349 1.0 3.0 0.00 0.00 0.00 76 1007.0
20260509214004 86 5 1.0 3.0 0.00 0.00 0.00 75 1007.0
20260509213504 88 11 1.0 3.0 0.00 0.00 0.00 71 1007.1
20260509213004 89 15 1.0 3.0 0.00 0.00 0.00 69 1007.1
20260509212525 89 348 1.0 3.0 0.00 0.00 0.00 71 1007.3
20260509212004 89 270 1.0 3.0 0.00 0.00 0.00 66 1007.3
20260509211504 89 47 2.0 4.0 0.00 0.00 0.00 70 1007.4
20260509211004 89 38 2.0 4.0 0.00 0.00 0.00 67 1007.4
20260509210504 88 19 1.0 4.0 0.00 0.00 0.00 67 1007.5
20260509210004 89 338 1.0 2.0 0.00 0.00 0.00 71 1007.7
20260509205504 88 219 1.0 3.0 0.00 0.00 0.00 71 1007.7
20260509205004 89 260 1.0 3.0 0.00 0.00 0.00 67 1007.7
20260509204504 89 336 1.0 3.0 0.00 0.00 0.00 72 1007.8
20260509204004 90 232 1.0 3.0 0.00 0.00 0.00 70 1007.9
20260509203504 89 228 1.0 3.0 0.00 0.00 0.00 68 1008.0
20260509203004 88 348 1.0 3.0 0.00 0.00 0.00 69 1008.0
20260509202504 88 329 1.0 3.0 0.00 0.00 0.00 72 1008.1
20260509202025 89 184 2.0 3.0 0.00 0.00 0.00 67 1008.2
20260509201504 88 154 1.0 3.0 0.00 0.00 0.00 68 1008.2
20260509201004 86 24 1.0 3.0 0.00 0.00 0.00 75 1008.3
20260509200504 85 351 1.0 2.0 0.00 0.00 0.00 77 1008.3
20260509200025 86 316 1.0 3.0 0.00 0.00 0.00 72 1008.4
20260509195525 86 38 1.0 4.0 0.00 0.00 0.00 70 1008.5
20260509195004 87 40 1.0 4.0 0.00 0.00 0.00 73 1008.6
20260509194504 86 34 1.0 4.0 0.00 0.00 0.00 75 1008.7
20260509194004 86 204 2.0 6.0 0.00 0.00 0.00 73 1008.7
20260509193504 87 204 2.0 6.0 0.00 0.00 0.00 71 1008.7
20260509193004 86 18 1.0 4.0 0.00 0.00 0.00 73 1008.6
20260509192504 86 2 1.0 4.0 0.00 0.00 0.00 77 1008.7
20260509192004 87 216 1.0 3.0 0.00 0.00 0.00 73 1008.8
20260509191504 87 192 1.0 3.0 0.00 0.00 0.00 73 1008.8
20260509191004 86 214 1.0 3.0 0.00 0.00 0.00 75 1008.8
20260509190504 86 200 2.0 4.0 0.00 0.00 0.00 73 1008.9
20260509190004 84 188 1.0 4.0 0.00 0.00 0.00 77 1009.0
20260509185504 84 30 1.0 3.0 0.00 0.00 0.00 79 1009.0
20260509185025 83 5 1.0 3.0 0.00 0.00 0.00 77 1009.0
20260509184504 84 316 1.0 3.0 0.00 0.00 0.00 80 1009.1
20260509184004 84 291 1.0 3.0 0.00 0.00 0.00 79 1009.1
20260509183525 84 339 1.0 3.0 0.00 0.00 0.00 78 1009.2
20260509183004 83 13 1.0 3.0 0.00 0.00 0.00 78 1009.2
20260509182504 83 315 1.0 3.0 0.00 0.00 0.00 79 1009.2
20260509182004 84 204 2.0 4.0 0.00 0.00 0.00 78 1009.3
20260509181525 85 187 2.0 5.0 0.00 0.00 0.00 75 1009.4
20260509181004 86 165 3.0 5.0 0.00 0.00 0.00 75 1009.5
20260509180525 85 156 2.0 5.0 0.00 0.00 0.00 76 1009.4
20260509180004 84 177 2.0 5.0 0.00 0.00 0.00 77 1009.6
20260509175525 84 212 1.0 3.0 0.00 0.00 0.00 78 1009.7
20260509175004 82 349 1.0 3.0 0.00 0.00 0.00 82 1009.8
20260509174504 81 244 1.0 4.0 0.00 0.00 0.00 83 1010.0
20260509174004 81 213 1.0 4.0 0.00 0.00 0.00 83 1010.0
20260509173504 81 224 1.0 3.0 0.00 0.00 0.00 85 1010.0
20260509173004 80 259 1.0 3.0 0.00 0.00 0.00 87 1009.9
20260509172504 78 337 1.0 2.0 0.00 0.00 0.00 90 1010.1
20260509172004 78 22 0.0 2.0 0.00 0.00 0.00 90 1010.1
20260509171504 78 10 0.0 2.0 0.00 0.00 0.00 90 1010.1
20260509171004 78 342 0.0 2.0 0.00 0.00 0.00 90 1010.3